Date,TemperatureHighF,TemperatureAvgF,TemperatureLowF,DewpointHighF,DewpointAvgF,DewpointLowF,HumidityHigh,HumidityAvg,HumidityLow,PressureMaxIn,PressureMinIn,WindSpeedMaxMPH,WindSpeedAvgMPH,GustSpeedMaxMPH,PrecipitationSumIn
2013-9-1,77,71,68,71,68,65,96,89,79,29.85,29.78,2,0,5,0.00
2013-9-2,80,70,62,71,66,62,98,89,65,29.81,29.73,6,1,17,2.40
2013-9-3,66,61,57,62,57,54,99,89,67,30.04,29.80,8,1,11,0.00
2013-9-4,71,61,53,58,55,53,99,82,58,30.14,30.04,4,1,8,0.00
2013-9-5,69,61,52,58,52,44,95,74,43,30.21,30.06,7,1,13,0.00
2013-9-6,71,58,46,45,41,35,83,56,32,30.30,30.18,3,0,6,0.00
2013-9-7,74,63,53,55,49,39,77,61,41,30.17,29.97,3,1,4,0.00
2013-9-8,74,64,59,65,59,52,96,83,62,30.09,29.93,5,1,11,0.00
2013-9-9,70,61,53,61,54,44,89,77,65,30.16,30.08,8,2,14,0.01
2013-9-10,84,74,65,74,69,61,92,84,69,30.16,30.08,5,1,8,0.00
2013-9-11,83,74,69,74,70,68,96,89,74,30.14,30.00,3,1,9,0.26
2013-9-12,70,65,59,68,64,58,98,96,93,30.00,29.77,5,1,9,0.13
2013-9-13,60,54,45,59,52,44,99,95,79,30.02,29.78,5,1,10,0.23
2013-9-14,60,49,44,47,44,42,99,84,57,30.22,30.03,4,0,9,0.00
2013-9-15,67,56,46,55,49,43,89,76,56,30.25,30.11,3,0,6,0.00
2013-9-16,65,56,49,55,52,47,99,86,65,30.32,30.10,5,1,8,0.18
2013-9-17,63,50,40,47,40,35,95,72,37,30.45,30.32,3,1,12,0.00
2013-9-18,69,62,54,50,47,44,77,60,43,30.30,30.18,4,1,8,0.00
2013-9-19,70,61,54,61,56,47,93,83,70,30.19,30.07,3,0,6,0.00
2013-9-20,78,66,58,65,60,56,93,82,63,30.08,29.87,8,1,10,0.00
2013-9-21,66,60,55,63,59,54,99,95,89,29.88,29.66,9,1,13,1.12
2013-9-22,57,52,48,54,49,45,99,91,68,30.04,29.77,4,1,10,0.00
2013-9-23,56,48,44,44,42,39,93,79,63,30.18,30.04,6,1,9,0.00
2013-9-24,68,53,41,46,42,37,94,68,35,30.17,30.03,2,0,5,0.00
2013-9-25,70,59,50,51,46,40,82,63,37,30.03,29.93,3,0,9,0.00
2013-9-26,71,61,52,53,44,38,77,56,34,30.11,29.97,5,1,6,0.00
2013-9-27,69,59,52,54,51,48,90,75,53,30.24,30.10,10,1,10,0.00
2013-9-28,64,56,50,53,50,47,98,82,60,30.32,30.21,4,1,13,0.00
2013-9-29,68,58,50,53,49,46,91,74,55,30.22,30.07,5,1,12,0.00
2013-9-30,72,61,54,59,54,48,93,78,57,30.09,30.01,4,0,7,0.00